TimeAKDT,TemperatureF,Dew PointF,Humidity,Sea Level PressureIn,VisibilityMPH,Wind Direction,Wind SpeedMPH,Gust SpeedMPH,PrecipitationIn,Events,Conditions,WindDirDegrees,DateUTC
12:56 AM,46.9,46.9,100,30.53,-9999.0,Calm,Calm,-,N/A,,Overcast,0,2012-10-05 08:56:00
1:56 AM,45.9,45.9,100,30.52,-9999.0,Calm,Calm,-,N/A,,Overcast,0,2012-10-05 09:56:00
2:21 AM,46.4,46.4,100,30.52,-9999.0,Calm,Calm,-,N/A,,Overcast,0,2012-10-05 10:21:00
2:56 AM,45.9,45.9,100,30.52,-9999.0,Calm,Calm,-,N/A,,Overcast,0,2012-10-05 10:56:00
3:39 AM,46.4,46.4,100,30.52,-9999.0,Calm,Calm,-,N/A,,Overcast,0,2012-10-05 11:39:00
3:56 AM,46.9,46.9,100,30.52,-9999.0,Calm,Calm,-,N/A,,Overcast,0,2012-10-05 11:56:00
4:56 AM,46.9,46.9,100,30.52,-9999.0,Calm,Calm,-,N/A,,Overcast,0,2012-10-05 12:56:00
5:56 AM,45.9,45.9,100,30.52,-9999.0,Calm,Calm,-,N/A,,Overcast,0,2012-10-05 13:56:00
6:56 AM,46.9,46.9,100,30.53,-9999.0,Calm,Calm,-,N/A,,Overcast,0,2012-10-05 14:56:00
7:23 AM,46.4,46.4,100,30.53,-9999.0,Calm,Calm,-,N/A,,Overcast,0,2012-10-05 15:23:00
7:56 AM,46.9,46.9,100,30.53,-9999.0,Calm,Calm,-,N/A,,Overcast,0,2012-10-05 15:56:00
8:37 AM,46.4,46.4,100,30.54,-9999.0,Calm,Calm,-,N/A,,Overcast,0,2012-10-05 16:37:00
8:56 AM,46.9,46.9,100,30.55,-9999.0,Calm,Calm,-,N/A,,Overcast,0,2012-10-05 16:56:00
9:56 AM,47.8,47.8,100,30.55,-9999.0,Calm,Calm,-,N/A,,Overcast,0,2012-10-05 17:56:00
10:12 AM,48.2,48.2,100,30.54,-9999.0,Calm,Calm,-,N/A,,Overcast,0,2012-10-05 18:12:00
10:56 AM,48.9,47.8,96,30.55,-9999.0,Calm,Calm,-,N/A,,Overcast,0,2012-10-05 18:56:00
11:05 AM,48.2,48.2,100,30.55,-9999.0,Calm,Calm,-,N/A,,Overcast,0,2012-10-05 19:05:00
11:56 AM,48.9,48.9,100,30.55,-9999.0,Calm,Calm,-,N/A,,Overcast,0,2012-10-05 19:56:00
12:56 PM,50.0,48.9,96,30.54,-9999.0,Calm,Calm,-,N/A,,Overcast,0,2012-10-05 20:56:00
1:56 PM,50.0,48.9,96,30.54,-9999.0,Calm,Calm,-,N/A,,Overcast,0,2012-10-05 21:56:00
2:56 PM,50.0,48.9,96,30.53,-9999.0,ESE,3.5,-,N/A,,Overcast,120,2012-10-05 22:56:00
3:56 PM,50.0,48.2,94,30.52,-9999.0,Calm,Calm,-,N/A,,Overcast,0,2012-10-05 23:56:00
4:56 PM,48.9,48.9,100,30.51,-9999.0,Calm,Calm,-,N/A,,Overcast,0,2012-10-06 00:56:00
5:56 PM,48.9,48.9,100,30.51,-9999.0,Calm,Calm,-,N/A,,Overcast,0,2012-10-06 01:56:00
6:39 PM,48.2,48.2,100,30.50,-9999.0,Calm,Calm,-,N/A,,Overcast,0,2012-10-06 02:39:00
6:56 PM,48.2,48.2,100,30.51,-9999.0,Calm,Calm,-,N/A,,Overcast,0,2012-10-06 02:56:00
7:14 PM,48.2,48.2,100,30.50,-9999.0,Calm,Calm,-,N/A,,Overcast,0,2012-10-06 03:14:00
7:56 PM,48.9,48.9,100,30.51,-9999.0,Calm,Calm,-,N/A,,Overcast,0,2012-10-06 03:56:00
8:34 PM,48.2,48.2,100,30.49,-9999.0,Calm,Calm,-,N/A,,Overcast,0,2012-10-06 04:34:00
8:56 PM,48.9,48.9,100,30.50,-9999.0,Calm,Calm,-,N/A,,Overcast,0,2012-10-06 04:56:00
9:56 PM,47.8,47.8,100,30.49,-9999.0,Calm,Calm,-,N/A,,Overcast,0,2012-10-06 05:56:00
10:22 PM,48.2,48.2,100,30.49,-9999.0,Calm,Calm,-,N/A,,Overcast,0,2012-10-06 06:22:00
10:56 PM,47.8,47.8,100,30.49,-9999.0,Calm,Calm,-,N/A,,Overcast,0,2012-10-06 06:56:00
11:56 PM,48.9,48.9,100,30.49,-9999.0,Calm,Calm,-,N/A,,Overcast,0,2012-10-06 07:56:00